sat.trackr.live / text

‹ back to catalog

STARLINK-4678

NORAD 53780 · 2022-111H

PAYLOAD ACTIVE UNKNOWN

§ Identity

Operator
Country
US
Launch date
2022-09-11
Launch site
AFETR
Launch vehicle
Mass (kg)
RCS (m²)

Purposes: comms

External: N2YO · Heavens-Above · Gunter

§ Orbital elements

Epoch: 2026-05-25T03:10:29.799840Z

Period
95.44 min
Inclination
53.2135°
Eccentricity
0.0001133
Mean motion
15.08840878 rev/d
Perigee alt
539.0 km
Apogee alt
540.5 km
Semi-major
6,917.9 km
B*
1.0578e-4
RAAN
291.1504°
Arg perigee
89.2935°
Mean anomaly
270.8187°
Rev number
20,523

§ Raw data

STARLINK-46781 53780U 22111H   26145.13228935  .00001396  00000+0  10578-3 0  99932 53780  53.2135 291.1504 0001133  89.2935 270.8187 15.08840878205234

JSON: /api/v1/satellites/53780 · /tle

For live sub-satellite position, see the globe view (requires WebGL).

§ Visibility from observer

Set your observer location to see the next 7 days of passes ≥ 10°. The values pass through the URL so the page stays shareable.

No JS? Fill the form by hand. The geolocation button needs JavaScript.